| time (UTC) | temp F | wind direction | speed MPH | gust MPH | rain 1hr in | rain 24hr in | rain mn in | humidity % | barometer mb |
| 20260508135025 | 59 | 113 | 6.0 | 10.0 | 0.00 | 0.00 | 0.00 | 53 | 1021.3 |
| 20260508134025 | 57 | 90 | 7.0 | 12.0 | 0.00 | 0.00 | 0.00 | 53 | 1021.4 |
| 20260508133045 | 59 | 90 | 6.0 | 9.0 | 0.00 | 0.00 | 0.00 | 52 | 1021.5 |
| 20260508132025 | 60 | 113 | 5.0 | 10.0 | 0.00 | 0.00 | 0.00 | 53 | 1021.5 |
| 20260508131025 | 60 | 113 | 5.0 | 12.0 | 0.00 | 0.00 | 0.00 | 51 | 1021.5 |
| 20260508130025 | 61 | 90 | 6.0 | 12.0 | 0.00 | 0.00 | 0.00 | 51 | 1021.6 |
| 20260508125025 | 59 | 90 | 9.0 | 14.0 | 0.00 | 0.00 | 0.00 | 51 | 1021.6 |
| 20260508124026 | 61 | 135 | 6.0 | 12.0 | 0.00 | 0.00 | 0.00 | 51 | 1021.6 |
| 20260508123025 | 57 | 90 | 8.0 | 14.0 | 0.00 | 0.00 | 0.00 | 55 | 1021.7 |
| 20260508122025 | 61 | 90 | 8.0 | 17.0 | 0.00 | 0.00 | 0.00 | 53 | 1021.7 |
| 20260508121045 | 60 | 68 | 5.0 | 15.0 | 0.00 | 0.00 | 0.00 | 52 | 1021.7 |
| 20260508120025 | 60 | 113 | 7.0 | 13.0 | 0.00 | 0.00 | 0.00 | 52 | 1021.6 |
| 20260508115025 | 59 | 113 | 9.0 | 16.0 | 0.00 | 0.00 | 0.00 | 51 | 1021.6 |
| 20260508114025 | 59 | 135 | 4.0 | 8.0 | 0.00 | 0.00 | 0.00 | 48 | 1021.6 |
| 20260508113045 | 59 | 90 | 5.0 | 14.0 | 0.00 | 0.00 | 0.00 | 47 | 1021.7 |
| 20260508112025 | 60 | 113 | 7.0 | 12.0 | 0.00 | 0.00 | 0.00 | 45 | 1021.7 |
| 20260508111025 | 60 | 90 | 8.0 | 16.0 | 0.00 | 0.00 | 0.00 | 43 | 1021.8 |
| 20260508110025 | 59 | 90 | 6.0 | 12.0 | 0.00 | 0.00 | 0.00 | 45 | 1021.8 |
| 20260508105025 | 59 | 90 | 6.0 | 15.0 | 0.00 | 0.00 | 0.00 | 44 | 1021.9 |
| 20260508104045 | 59 | 90 | 4.0 | 9.0 | 0.00 | 0.00 | 0.00 | 42 | 1021.9 |
| 20260508103105 | 58 | 68 | 9.0 | 14.0 | 0.00 | 0.00 | 0.00 | 44 | 1022.0 |
| 20260508102025 | 59 | 68 | 5.0 | 12.0 | 0.00 | 0.00 | 0.00 | 46 | 1022.0 |
| 20260508101025 | 59 | 90 | 4.0 | 9.0 | 0.00 | 0.00 | 0.00 | 49 | 1022.1 |
| 20260508100025 | 58 | 113 | 6.0 | 10.0 | 0.00 | 0.00 | 0.00 | 52 | 1022.0 |
| 20260508095045 | 58 | 113 | 3.0 | 7.0 | 0.00 | 0.00 | 0.00 | 54 | 1022.1 |
| 20260508094024 | 56 | 113 | 6.0 | 12.0 | 0.00 | 0.00 | 0.00 | 51 | 1022.1 |
| 20260508093024 | 56 | 135 | 3.0 | 8.0 | 0.00 | 0.00 | 0.00 | 52 | 1022.2 |
| 20260508092025 | 55 | 113 | 6.0 | 11.0 | 0.00 | 0.00 | 0.00 | 51 | 1022.2 |
| 20260508091045 | 55 | 113 | 6.0 | 11.0 | 0.00 | 0.00 | 0.00 | 51 | 1022.2 |
| 20260508090025 | 56 | 113 | 4.0 | 11.0 | 0.00 | 0.00 | 0.00 | 52 | 1022.2 |
| 20260508085025 | 55 | 90 | 5.0 | 11.0 | 0.00 | 0.00 | 0.00 | 49 | 1022.2 |
| 20260508084024 | 56 | 90 | 5.0 | 9.0 | 0.00 | 0.00 | 0.00 | 50 | 1022.2 |
| 20260508083024 | 56 | 113 | 6.0 | 11.0 | 0.00 | 0.00 | 0.00 | 54 | 1022.2 |
| 20260508082045 | 55 | 90 | 7.0 | 11.0 | 0.00 | 0.00 | 0.00 | 53 | 1022.2 |
| 20260508081025 | 54 | 90 | 6.0 | 11.0 | 0.00 | 0.00 | 0.00 | 53 | 1022.2 |
| 20260508080025 | 54 | 90 | 8.0 | 12.0 | 0.00 | 0.00 | 0.00 | 54 | 1022.2 |
| 20260508075024 | 53 | 90 | 8.0 | 13.0 | 0.00 | 0.00 | 0.00 | 55 | 1022.1 |
| 20260508074045 | 53 | 90 | 8.0 | 15.0 | 0.00 | 0.00 | 0.00 | 53 | 1022.0 |
| 20260508073045 | 53 | 90 | 4.0 | 10.0 | 0.00 | 0.00 | 0.00 | 57 | 1022.0 |
| 20260508072024 | 51 | 113 | 5.0 | 9.0 | 0.00 | 0.00 | 0.00 | 60 | 1022.1 |
| 20260508071025 | 52 | 68 | 1.0 | 5.0 | 0.00 | 0.00 | 0.00 | 62 | 1022.1 |
| 20260508070024 | 50 | 113 | 2.0 | 6.0 | 0.00 | 0.00 | 0.00 | 65 | 1022.0 |
| 20260508065045 | 49 | 113 | 3.0 | 6.0 | 0.00 | 0.00 | 0.00 | 66 | 1021.9 |
| 20260508064024 | 49 | 113 | 1.0 | 6.0 | 0.00 | 0.00 | 0.00 | 68 | 1021.8 |
| 20260508063024 | 48 | 0.0 | 0.0 | 0.00 | 0.00 | 0.00 | 68 | 1021.6 | |
| 20260508062024 | 47 | 113 | 1.0 | 8.0 | 0.00 | 0.00 | 0.00 | 67 | 1021.7 |
| 20260508061045 | 47 | 0.0 | 0.0 | 0.00 | 0.00 | 0.00 | 69 | 1021.7 | |
| 20260508060024 | 46 | 0.0 | 0.0 | 0.00 | 0.00 | 0.00 | 67 | 1021.6 | |
| 20260508055024 | 47 | 113 | 2.0 | 8.0 | 0.00 | 0.00 | 0.00 | 63 | 1021.4 |
| 20260508054024 | 47 | 113 | 2.0 | 7.0 | 0.00 | 0.00 | 0.00 | 65 | 1021.5 |
| 20260508053024 | 45 | 0.0 | 0.0 | 0.00 | 0.00 | 0.00 | 71 | 1021.5 | |
| 20260508052024 | 42 | 0.0 | 0.0 | 0.00 | 0.00 | 0.00 | 79 | 1021.4 | |
| 20260508051024 | 41 | 0.0 | 0.0 | 0.00 | 0.00 | 0.00 | 81 | 1021.4 | |
| 20260508050024 | 40 | 0.0 | 0.0 | 0.00 | 0.00 | 0.00 | 85 | 1021.5 | |
| 20260508045024 | 39 | 0.0 | 0.0 | 0.00 | 0.00 | 0.00 | 86 | 1021.3 | |
| 20260508044024 | 38 | 0.0 | 0.0 | 0.00 | 0.00 | 0.00 | 86 | 1021.2 | |
| 20260508043024 | 37 | 0.0 | 0.0 | 0.00 | 0.00 | 0.00 | 86 | 1021.1 | |
| 20260508042024 | 37 | 0.0 | 0.0 | 0.00 | 0.00 | 0.00 | 87 | 1021.1 | |
| 20260508041024 | 36 | 0.0 | 0.0 | 0.00 | 0.00 | 0.00 | 88 | 1021.0 | |
| 20260508040025 | 36 | 0.0 | 0.0 | 0.00 | 0.00 | 0.00 | 87 | 1021.0 | |
| 20260508035144 | 36 | 0.0 | 0.0 | 0.00 | 0.00 | 0.00 | 87 | 1021.1 | |
| 20260508034024 | 36 | 0.0 | 0.0 | 0.00 | 0.00 | 0.00 | 86 | 1021.1 | |
| 20260508033024 | 36 | 0.0 | 0.0 | 0.00 | 0.00 | 0.00 | 85 | 1021.0 | |
| 20260508032024 | 36 | 0.0 | 0.0 | 0.00 | 0.00 | 0.00 | 86 | 1020.9 | |
| 20260508031024 | 36 | 0.0 | 0.0 | 0.00 | 0.00 | 0.00 | 85 | 1020.8 | |
| 20260508030124 | 36 | 0.0 | 0.0 | 0.00 | 0.00 | 0.00 | 85 | 1020.8 | |
| 20260508025044 | 37 | 0.0 | 0.0 | 0.00 | 0.00 | 0.00 | 85 | 1020.8 | |
| 20260508024024 | 38 | 0.0 | 0.0 | 0.00 | 0.00 | 0.00 | 84 | 1020.7 | |
| 20260508023024 | 38 | 0.0 | 0.0 | 0.00 | 0.00 | 0.00 | 84 | 1020.7 | |
| 20260508022024 | 38 | 0.0 | 0.0 | 0.00 | 0.00 | 0.00 | 83 | 1020.8 | |
| 20260508021024 | 38 | 0.0 | 0.0 | 0.00 | 0.00 | 0.00 | 84 | 1020.7 | |
| 20260508020044 | 38 | 0.0 | 0.0 | 0.00 | 0.00 | 0.00 | 83 | 1020.6 | |
| 20260508015024 | 39 | 0.0 | 0.0 | 0.00 | 0.00 | 0.00 | 83 | 1020.6 | |
| 20260508014024 | 39 | 45 | 1.0 | 4.0 | 0.00 | 0.00 | 0.00 | 83 | 1020.7 |
| 20260508013043 | 40 | 0.0 | 0.0 | 0.00 | 0.00 | 0.00 | 83 | 1020.6 | |
| 20260508012104 | 40 | 0.0 | 4.0 | 0.00 | 0.00 | 0.00 | 84 | 1020.5 | |
| 20260508011024 | 39 | 0.0 | 0.0 | 0.00 | 0.00 | 0.00 | 85 | 1020.6 | |
| 20260508010024 | 39 | 0.0 | 0.0 | 0.00 | 0.00 | 0.00 | 86 | 1020.5 | |
| 20260508005024 | 38 | 0.0 | 0.0 | 0.00 | 0.00 | 0.00 | 86 | 1020.6 | |
| 20260508004024 | 38 | 0.0 | 0.0 | 0.00 | 0.00 | 0.00 | 86 | 1020.5 | |
| 20260508003023 | 39 | 0.0 | 0.0 | 0.00 | 0.00 | 0.00 | 85 | 1020.5 | |
| 20260508002024 | 39 | 0.0 | 0.0 | 0.00 | 0.00 | 0.00 | 85 | 1020.4 | |
| 20260508001023 | 39 | 0.0 | 0.0 | 0.00 | 0.00 | 0.00 | 85 | 1020.4 | |
| 20260508000023 | 39 | 0.0 | 0.0 | 0.00 | 0.00 | 0.00 | 85 | 1020.4 | |
| 20260507235023 | 39 | 0.0 | 0.0 | 0.00 | 0.00 | 0.00 | 85 | 1020.4 | |
| 20260507234023 | 39 | 0.0 | 0.0 | 0.00 | 0.00 | 0.00 | 85 | 1020.3 | |
| 20260507233024 | 40 | 0.0 | 0.0 | 0.00 | 0.00 | 0.00 | 84 | 1020.4 | |
| 20260507232025 | 40 | 0.0 | 0.0 | 0.00 | 0.00 | 0.00 | 83 | 1020.4 | |
| 20260507231025 | 40 | 0.0 | 0.0 | 0.00 | 0.00 | 0.00 | 83 | 1020.2 | |
| 20260507230025 | 41 | 0.0 | 0.0 | 0.00 | 0.00 | 0.00 | 82 | 1020.2 | |
| 20260507225025 | 41 | 0.0 | 0.0 | 0.00 | 0.00 | 0.00 | 83 | 1020.2 | |
| 20260507224025 | 41 | 0.0 | 0.0 | 0.00 | 0.00 | 0.00 | 83 | 1020.2 | |
| 20260507223025 | 41 | 0.0 | 0.0 | 0.00 | 0.00 | 0.00 | 83 | 1020.1 | |
| 20260507222025 | 41 | 0.0 | 0.0 | 0.00 | 0.00 | 0.00 | 82 | 1020.2 | |
| 20260507221026 | 41 | 0.0 | 0.0 | 0.00 | 0.00 | 0.00 | 82 | 1020.1 | |
| 20260507220026 | 41 | 0.0 | 0.0 | 0.00 | 0.00 | 0.00 | 81 | 1020.0 | |
| 20260507215025 | 42 | 0.0 | 0.0 | 0.00 | 0.00 | 0.00 | 80 | 1020.0 | |
| 20260507214046 | 43 | 0.0 | 0.0 | 0.00 | 0.00 | 0.00 | 79 | 1020.0 | |
| 20260507213025 | 43 | 0.0 | 0.0 | 0.00 | 0.00 | 0.00 | 78 | 1019.9 | |
| 20260507212025 | 43 | 0.0 | 0.0 | 0.00 | 0.00 | 0.00 | 78 | 1019.7 | |
| 20260507211025 | 44 | 0.0 | 0.0 | 0.00 | 0.00 | 0.00 | 78 | 1019.8 | |
| 20260507210025 | 44 | 0.0 | 0.0 | 0.00 | 0.00 | 0.00 | 77 | 1019.7 | |
| 20260507205025 | 45 | 0.0 | 0.0 | 0.00 | 0.00 | 0.00 | 77 | 1019.6 | |
| 20260507204025 | 45 | 0.0 | 0.0 | 0.00 | 0.00 | 0.00 | 78 | 1019.6 | |
| 20260507203025 | 45 | 0.0 | 0.0 | 0.00 | 0.00 | 0.00 | 78 | 1019.6 | |
| 20260507202025 | 45 | 0.0 | 0.0 | 0.00 | 0.00 | 0.00 | 77 | 1019.5 | |
| 20260507201025 | 46 | 0.0 | 0.0 | 0.00 | 0.00 | 0.00 | 75 | 1019.3 | |
| 20260507200025 | 46 | 0.0 | 0.0 | 0.00 | 0.00 | 0.00 | 74 | 1019.2 | |
| 20260507195025 | 47 | 0.0 | 0.0 | 0.00 | 0.00 | 0.00 | 71 | 1019.1 | |
| 20260507194025 | 49 | 0.0 | 0.0 | 0.00 | 0.00 | 0.00 | 63 | 1019.0 | |
| 20260507193025 | 51 | 0.0 | 0.0 | 0.00 | 0.00 | 0.00 | 59 | 1019.0 | |
| 20260507192025 | 51 | 0.0 | 0.0 | 0.00 | 0.00 | 0.00 | 58 | 1018.8 | |
| 20260507191025 | 52 | 0.0 | 2.0 | 0.00 | 0.00 | 0.00 | 57 | 1018.7 | |
| 20260507190025 | 52 | 113 | 1.0 | 4.0 | 0.00 | 0.00 | 0.00 | 56 | 1018.7 |
| 20260507185025 | 53 | 113 | 1.0 | 6.0 | 0.00 | 0.00 | 0.00 | 55 | 1018.5 |
| 20260507184025 | 54 | 113 | 4.0 | 9.0 | 0.00 | 0.00 | 0.00 | 54 | 1018.3 |
| 20260507183025 | 54 | 113 | 2.0 | 7.0 | 0.00 | 0.00 | 0.00 | 54 | 1018.2 |
| 20260507182025 | 55 | 0.0 | 0.0 | 0.00 | 0.00 | 0.00 | 54 | 1018.2 | |
| 20260507181025 | 55 | 113 | 2.0 | 8.0 | 0.00 | 0.00 | 0.00 | 54 | 1018.0 |
| 20260507180025 | 56 | 113 | 3.0 | 8.0 | 0.00 | 0.00 | 0.00 | 53 | 1017.9 |
| 20260507175025 | 56 | 113 | 2.0 | 6.0 | 0.00 | 0.00 | 0.00 | 53 | 1017.9 |
| 20260507174025 | 56 | 90 | 3.0 | 9.0 | 0.00 | 0.00 | 0.00 | 53 | 1017.7 |
| 20260507173025 | 57 | 90 | 3.0 | 8.0 | 0.00 | 0.00 | 0.00 | 51 | 1017.7 |
| 20260507172025 | 56 | 90 | 5.0 | 10.0 | 0.00 | 0.00 | 0.00 | 51 | 1017.6 |
| 20260507171025 | 57 | 90 | 5.0 | 8.0 | 0.00 | 0.00 | 0.00 | 51 | 1017.5 |
| 20260507170025 | 57 | 90 | 5.0 | 10.0 | 0.00 | 0.00 | 0.00 | 51 | 1017.5 |
| 20260507165025 | 57 | 90 | 6.0 | 11.0 | 0.00 | 0.00 | 0.00 | 50 | 1017.4 |
| 20260507164025 | 57 | 90 | 6.0 | 13.0 | 0.00 | 0.00 | 0.00 | 51 | 1017.4 |
| 20260507163025 | 58 | 90 | 4.0 | 9.0 | 0.00 | 0.00 | 0.00 | 50 | 1017.3 |
| 20260507162025 | 58 | 90 | 5.0 | 11.0 | 0.00 | 0.00 | 0.00 | 50 | 1017.3 |
| 20260507161025 | 58 | 90 | 5.0 | 9.0 | 0.00 | 0.00 | 0.00 | 48 | 1017.3 |
| 20260507160024 | 58 | 90 | 7.0 | 14.0 | 0.00 | 0.00 | 0.00 | 49 | 1017.3 |
| 20260507155045 | 59 | 68 | 6.0 | 13.0 | 0.00 | 0.00 | 0.00 | 49 | 1017.2 |
| 20260507154025 | 59 | 113 | 4.0 | 9.0 | 0.00 | 0.00 | 0.00 | 49 | 1017.2 |
| 20260507153024 | 59 | 68 | 7.0 | 12.0 | 0.00 | 0.00 | 0.00 | 48 | 1017.1 |
| 20260507152024 | 59 | 90 | 7.0 | 12.0 | 0.00 | 0.00 | 0.00 | 49 | 1017.0 |
| 20260507151024 | 59 | 90 | 8.0 | 11.0 | 0.00 | 0.00 | 0.00 | 49 | 1017.0 |
| 20260507150025 | 60 | 90 | 7.0 | 11.0 | 0.00 | 0.00 | 0.00 | 49 | 1016.9 |
| 20260507145025 | 60 | 90 | 7.0 | 13.0 | 0.00 | 0.00 | 0.00 | 50 | 1016.9 |
| 20260507144024 | 59 | 90 | 6.0 | 14.0 | 0.00 | 0.00 | 0.00 | 50 | 1016.9 |
| 20260507143025 | 60 | 68 | 5.0 | 11.0 | 0.00 | 0.00 | 0.00 | 51 | 1016.9 |
| 20260507142025 | 60 | 113 | 6.0 | 11.0 | 0.00 | 0.00 | 0.00 | 49 | 1017.0 |
| 20260507141025 | 60 | 90 | 7.0 | 16.0 | 0.00 | 0.00 | 0.00 | 51 | 1016.9 |
| 20260507140104 | 59 | 68 | 6.0 | 14.0 | 0.00 | 0.00 | 0.00 | 53 | 1017.0 |